Location: Boiro
(42.6475°N, 8.8834°W)
Time: 19:47:59
(UTC+01:00)

Vanguard 2 - Pass Details

Date: 04 December 2021
Orbit: 553 x 2936 km, 32.9° (Epoch: 21 January)

Event Time Altitude Azimuth Distance (km) Brightness Sun altitude
Rises 21:21:03 0° 260° (W) 4,596 12.5 -35.8°
Reaches altitude 10° 21:26:02 10° 236° (SW) 4,109 11.7 -36.7°
Maximum altitude 21:31:01 14° 210° (SSW) 4,236 11.5 -37.6°
Drops below altitude 10° 21:36:56 10° 184° (S) 5,007 11.6 -38.7°
Sets 21:44:36 0° 164° (SSE) 6,459 12.1 -40.1°
